Weather in Vohtoga

Russia / Vologda Oblast     58°45′58″N   41°04′20″E
temp.,
°C
wind,
m/s
gust,
m/s
humid.,
%
clouds,
%
prec.,
mm/h
press.,
hPa
HPBL,
m
12 may, wed
wed1200:00+9sse22775 0.0 102933
03:00+8sse117653 0.0 102910
06:00+11sse11720 0.0 102954
09:00+18ese11594 0.0 1028383
12:00+22ese22500 0.0 1027946
15:00+23e23450 0.0 10261290
18:00+22e23595 0.0 102372
21:00+16ese35775 0.0 102390
13 may, thu
thu1300:00+15se278545 0.3 1023160
03:00+13ese2394100 0.5 102344
06:00+14ese39879 0.0 1022245
09:00+19se486688 0.0 1022681
12:00+21se586236 0.5 10201444
15:00+23sse47526 1.2 10182135
18:00+19ese41267100 0.1 1016633
21:00+15sse41189100 2.0 1016528
14 may, fri
fri1400:00+14sse399799 0.3 1016496
03:00+13s269513 0.3 1016338
06:00+12ssw3893100 0.0 1017306
09:00+15ssw3775100 0.0 1018511
12:00+19ssw475896 0.0 10181475
15:00+20s475497 0.1 10171707
18:00+18ssw377413 0.6 1016979
21:00+14s239384 1.3 101656
15 may, sat
sat1500:00+14sse2395100 1.4 101549
03:00+14ese2699100 3.9 1014236
06:00+14ese3896100 0.0 1013263
09:00+18s41286100 0.4 1012719
12:00+22s3565100 0.4 1011784
15:00+21sse367999 2.7 1010597
18:00+19ssw61182100 1.9 1009656
21:00+14s28965 3.4 1009207
16 may, sun
sun1600:00+14s413965 0.1 1008404
03:00+14s311979 0.1 1008323
06:00+15ssw4119463 0.0 1008459
09:00+18ssw59745 0.0 1009871
12:00+21ssw6955100 0.0 10091738
15:00+21sw585668 0.1 10091762
18:00+18wsw48770 1.0 1010984
21:00+13sw311923 2.1 1011308